Year,Month,Day,Hour,Minute,Value (Times are PST for temperature in C)
2014,02,18,00,00,0.90
2014,02,18,00,01,0.90
2014,02,18,00,02,0.90
2014,02,18,00,03,0.90
2014,02,18,00,04,0.90
2014,02,18,00,05,0.90
2014,02,18,00,06,0.90
2014,02,18,00,07,0.90
2014,02,18,00,08,0.90
2014,02,18,00,09,0.90
2014,02,18,00,10,0.90
2014,02,18,00,11,0.90
2014,02,18,00,12,0.90
2014,02,18,00,13,0.90
2014,02,18,00,14,0.90
2014,02,18,00,15,0.90
2014,02,18,00,16,0.90
2014,02,18,00,17,0.90
2014,02,18,00,18,0.90
2014,02,18,00,19,0.90
2014,02,18,00,20,0.90
2014,02,18,00,21,0.90
2014,02,18,00,22,0.90
2014,02,18,00,23,0.90
2014,02,18,00,24,0.90
2014,02,18,00,25,0.90
2014,02,18,00,26,0.90
2014,02,18,00,27,0.90
2014,02,18,00,28,0.90
2014,02,18,00,29,0.90
2014,02,18,00,30,0.90
2014,02,18,00,31,0.90
2014,02,18,00,32,0.90
2014,02,18,00,33,0.90
2014,02,18,00,34,0.90
2014,02,18,00,35,0.90
2014,02,18,00,36,0.90
2014,02,18,00,37,0.90
2014,02,18,00,38,0.90
2014,02,18,00,39,0.90
2014,02,18,00,40,0.90
2014,02,18,00,41,0.90
2014,02,18,00,42,0.90
2014,02,18,00,43,0.90
2014,02,18,00,44,0.90
2014,02,18,00,45,0.90
2014,02,18,00,46,0.80
2014,02,18,00,47,0.80
2014,02,18,00,48,0.80
2014,02,18,00,49,0.80
2014,02,18,00,50,0.80
2014,02,18,00,51,0.70
2014,02,18,00,52,0.70
2014,02,18,00,53,0.70
2014,02,18,00,54,0.70
2014,02,18,00,55,0.70
2014,02,18,00,56,0.60
2014,02,18,00,57,0.60
2014,02,18,00,58,0.60
2014,02,18,00,59,0.60
2014,02,18,01,00,0.60
2014,02,18,01,01,0.60
2014,02,18,01,02,0.60
2014,02,18,01,03,0.60
2014,02,18,01,04,0.50
2014,02,18,01,05,0.50
2014,02,18,01,06,0.60
2014,02,18,01,07,0.60
2014,02,18,01,08,0.60
2014,02,18,01,09,0.60
2014,02,18,01,10,0.60
2014,02,18,01,11,0.50
2014,02,18,01,12,0.50
2014,02,18,01,13,0.50
2014,02,18,01,14,0.50
2014,02,18,01,15,0.40
2014,02,18,01,16,0.40
2014,02,18,01,17,0.40
2014,02,18,01,18,0.40
2014,02,18,01,19,0.40
2014,02,18,01,20,0.40
2014,02,18,01,21,0.40
2014,02,18,01,22,0.30
2014,02,18,01,23,0.30
2014,02,18,01,24,0.30
2014,02,18,01,25,0.30
2014,02,18,01,26,0.30
2014,02,18,01,27,0.30
2014,02,18,01,28,0.30
2014,02,18,01,29,0.30
2014,02,18,01,30,0.30
2014,02,18,01,31,0.30
2014,02,18,01,32,0.30
2014,02,18,01,33,0.30
2014,02,18,01,34,0.30
2014,02,18,01,35,0.30
2014,02,18,01,36,0.30
2014,02,18,01,37,0.30
2014,02,18,01,38,0.30
2014,02,18,01,39,0.30
2014,02,18,01,40,0.30
2014,02,18,01,41,0.30
2014,02,18,01,42,0.30
2014,02,18,01,43,0.30
2014,02,18,01,44,0.30
2014,02,18,01,45,0.30
2014,02,18,01,46,0.30
2014,02,18,01,47,0.20
2014,02,18,01,48,0.20
2014,02,18,01,49,0.20
2014,02,18,01,50,0.20
2014,02,18,01,51,0.20
2014,02,18,01,52,0.20
2014,02,18,01,53,0.20
2014,02,18,01,54,0.20
2014,02,18,01,55,0.20
2014,02,18,01,56,0.20
2014,02,18,01,57,0.10
2014,02,18,01,58,0.10
2014,02,18,01,59,0.10
2014,02,18,02,00,0.00
2014,02,18,02,01,0.00
2014,02,18,02,02,0.00
2014,02,18,02,03,-0.10
2014,02,18,02,04,-0.10
2014,02,18,02,05,-0.10
2014,02,18,02,06,-0.10
2014,02,18,02,07,-0.10
2014,02,18,02,08,-0.10
2014,02,18,02,09,-0.10
2014,02,18,02,10,-0.10
2014,02,18,02,11,-0.10
2014,02,18,02,12,-0.10
2014,02,18,02,13,-0.10
2014,02,18,02,14,-0.10
2014,02,18,02,15,-0.10
2014,02,18,02,16,-0.10
2014,02,18,02,17,-0.10
2014,02,18,02,18,-0.10
2014,02,18,02,19,-0.10
2014,02,18,02,20,-0.10
2014,02,18,02,21,-0.10
2014,02,18,02,22,-0.10
2014,02,18,02,23,-0.10
2014,02,18,02,24,-0.10
2014,02,18,02,25,-0.10
2014,02,18,02,26,-0.10
2014,02,18,02,27,-0.10
2014,02,18,02,28,-0.10
2014,02,18,02,29,-0.10
2014,02,18,02,30,-0.10
2014,02,18,02,31,-0.10
2014,02,18,02,32,-0.10
2014,02,18,02,33,-0.20
2014,02,18,02,34,-0.20
2014,02,18,02,35,-0.20
2014,02,18,02,36,-0.20
2014,02,18,02,37,-0.20
2014,02,18,02,38,-0.20
2014,02,18,02,39,-0.20
2014,02,18,02,40,-0.20
2014,02,18,02,41,-0.20
2014,02,18,02,42,-0.10
2014,02,18,02,43,-0.10
2014,02,18,02,44,-0.10
2014,02,18,02,45,-0.10
2014,02,18,02,46,-0.10
2014,02,18,02,47,-0.10
2014,02,18,02,48,-0.10
2014,02,18,02,49,-0.10
2014,02,18,02,50,-0.10
2014,02,18,02,51,-0.10
2014,02,18,02,52,-0.10
2014,02,18,02,53,-0.10
2014,02,18,02,54,-0.10
2014,02,18,02,55,-0.10
2014,02,18,02,56,-0.10
2014,02,18,02,57,-0.10
2014,02,18,02,58,-0.10
2014,02,18,02,59,-0.10
2014,02,18,03,00,-0.10
2014,02,18,03,01,-0.10
2014,02,18,03,02,-0.10
2014,02,18,03,03,-0.10
2014,02,18,03,04,-0.10
2014,02,18,03,05,-0.10
2014,02,18,03,06,-0.10
2014,02,18,03,07,-0.10
2014,02,18,03,08,-0.10
2014,02,18,03,09,-0.10
2014,02,18,03,10,-0.10
2014,02,18,03,11,-0.10
2014,02,18,03,12,-0.10
2014,02,18,03,13,-0.10
2014,02,18,03,14,-0.10
2014,02,18,03,15,-0.10
2014,02,18,03,16,-0.10
2014,02,18,03,17,0.00
2014,02,18,03,18,0.00
2014,02,18,03,19,0.00
2014,02,18,03,20,0.00
2014,02,18,03,21,0.00
2014,02,18,03,22,0.00
2014,02,18,03,23,0.00
2014,02,18,03,24,0.00
2014,02,18,03,25,0.00
2014,02,18,03,26,0.00
2014,02,18,03,27,0.00
2014,02,18,03,28,0.00
2014,02,18,03,29,0.00
2014,02,18,03,30,0.00
2014,02,18,03,31,0.00
2014,02,18,03,32,0.00
2014,02,18,03,33,0.00
2014,02,18,03,34,0.00
2014,02,18,03,35,0.00
2014,02,18,03,36,0.00
2014,02,18,03,37,0.10
2014,02,18,03,38,0.10
2014,02,18,03,39,0.10
2014,02,18,03,40,0.10
2014,02,18,03,41,0.10
2014,02,18,03,42,0.10
2014,02,18,03,43,0.10
2014,02,18,03,44,0.10
2014,02,18,03,45,0.10
2014,02,18,03,46,0.10
2014,02,18,03,47,0.10
2014,02,18,03,48,0.10
2014,02,18,03,49,0.10
2014,02,18,03,50,0.10
2014,02,18,03,51,0.10
2014,02,18,03,52,0.10
2014,02,18,03,53,0.10
2014,02,18,03,54,0.10
2014,02,18,03,55,0.10
2014,02,18,03,56,0.10
2014,02,18,03,57,0.10
2014,02,18,03,58,0.20
2014,02,18,03,59,0.20
2014,02,18,04,00,0.20
2014,02,18,04,01,0.20
2014,02,18,04,02,0.20
2014,02,18,04,03,0.20
2014,02,18,04,04,0.20
2014,02,18,04,05,0.10
2014,02,18,04,06,0.10
2014,02,18,04,07,0.10
2014,02,18,04,08,0.10
2014,02,18,04,09,0.10
2014,02,18,04,10,0.10
2014,02,18,04,11,0.10
2014,02,18,04,12,0.10
2014,02,18,04,13,0.20
2014,02,18,04,14,0.20
2014,02,18,04,15,0.20
2014,02,18,04,16,0.20
2014,02,18,04,17,0.20
2014,02,18,04,18,0.20
2014,02,18,04,19,0.20
2014,02,18,04,20,0.20
2014,02,18,04,21,0.20
2014,02,18,04,22,0.20
2014,02,18,04,23,0.20
2014,02,18,04,24,0.20
2014,02,18,04,25,0.20
2014,02,18,04,26,0.20
2014,02,18,04,27,0.20
2014,02,18,04,28,0.20
2014,02,18,04,29,0.20
2014,02,18,04,30,0.20
2014,02,18,04,31,0.20
2014,02,18,04,32,0.20
2014,02,18,04,33,0.20
2014,02,18,04,34,0.20
2014,02,18,04,35,0.20
2014,02,18,04,36,0.20
2014,02,18,04,37,0.20
2014,02,18,04,38,0.20
2014,02,18,04,39,0.20
2014,02,18,04,40,0.20
2014,02,18,04,41,0.20
2014,02,18,04,42,0.20
2014,02,18,04,43,0.20
2014,02,18,04,44,0.20
2014,02,18,04,45,0.20
2014,02,18,04,46,0.20
2014,02,18,04,47,0.20
2014,02,18,04,48,0.30
2014,02,18,04,49,0.30
2014,02,18,04,50,0.30
2014,02,18,04,51,0.30
2014,02,18,04,52,0.30
2014,02,18,04,53,0.30
2014,02,18,04,54,0.30
2014,02,18,04,55,0.30
2014,02,18,04,56,0.30
2014,02,18,04,57,0.30
2014,02,18,04,58,0.30
2014,02,18,04,59,0.30
2014,02,18,05,00,0.30
2014,02,18,05,01,0.30
2014,02,18,05,02,0.30
2014,02,18,05,03,0.30
2014,02,18,05,04,0.40
2014,02,18,05,05,0.40
2014,02,18,05,06,0.40
2014,02,18,05,07,0.40
2014,02,18,05,08,0.40
2014,02,18,05,09,0.50
2014,02,18,05,10,0.50
2014,02,18,05,11,0.60
2014,02,18,05,12,0.60
2014,02,18,05,13,0.60
2014,02,18,05,14,0.60
2014,02,18,05,15,0.70
2014,02,18,05,16,0.70
2014,02,18,05,17,0.80
2014,02,18,05,18,0.80
2014,02,18,05,19,0.80
2014,02,18,05,20,0.90
2014,02,18,05,21,0.90
2014,02,18,05,22,0.90
2014,02,18,05,23,0.90
2014,02,18,05,24,0.90
2014,02,18,05,25,0.90
2014,02,18,05,26,1.00
2014,02,18,05,27,1.00
2014,02,18,05,28,1.00
2014,02,18,05,29,1.00
2014,02,18,05,30,1.00
2014,02,18,05,31,1.00
2014,02,18,05,32,1.00
2014,02,18,05,33,1.00
2014,02,18,05,34,1.00
2014,02,18,05,35,1.00
2014,02,18,05,36,1.00
2014,02,18,05,37,1.00
2014,02,18,05,38,1.00
2014,02,18,05,39,1.00
2014,02,18,05,40,1.00
2014,02,18,05,41,1.00
2014,02,18,05,42,1.10
2014,02,18,05,43,1.10
2014,02,18,05,44,1.10
2014,02,18,05,45,1.10
2014,02,18,05,46,1.10
2014,02,18,05,47,1.20
2014,02,18,05,48,1.20
2014,02,18,05,49,1.10
2014,02,18,05,50,1.10
2014,02,18,05,51,1.10
2014,02,18,05,52,1.10
2014,02,18,05,53,1.10
2014,02,18,05,54,1.10
2014,02,18,05,55,1.10
2014,02,18,05,56,1.20
2014,02,18,05,57,1.20
2014,02,18,05,58,1.20
2014,02,18,05,59,1.20
2014,02,18,06,00,1.30
2014,02,18,06,01,1.30
2014,02,18,06,02,1.30
2014,02,18,06,03,1.30
2014,02,18,06,04,1.30
2014,02,18,06,05,1.30
2014,02,18,06,06,1.30
2014,02,18,06,07,1.30
2014,02,18,06,08,1.30
2014,02,18,06,09,1.30
2014,02,18,06,10,1.30
2014,02,18,06,11,1.30
2014,02,18,06,12,1.30
2014,02,18,06,13,1.30
2014,02,18,06,14,1.30
2014,02,18,06,15,1.30
2014,02,18,06,16,1.30
2014,02,18,06,17,1.30
2014,02,18,06,18,1.30
2014,02,18,06,19,1.30
2014,02,18,06,20,1.30
2014,02,18,06,21,1.30
2014,02,18,06,22,1.30
2014,02,18,06,23,1.30
2014,02,18,06,24,1.30
2014,02,18,06,25,1.40
2014,02,18,06,26,1.40
2014,02,18,06,27,1.40
2014,02,18,06,28,1.50
2014,02,18,06,29,1.50
2014,02,18,06,30,1.50
2014,02,18,06,31,1.50
2014,02,18,06,32,1.50
2014,02,18,06,33,1.40
2014,02,18,06,34,1.50
2014,02,18,06,35,1.50
2014,02,18,06,36,1.50
2014,02,18,06,37,1.50
2014,02,18,06,38,1.50
2014,02,18,06,39,1.50
2014,02,18,06,40,1.50
2014,02,18,06,41,1.50
2014,02,18,06,42,1.50
2014,02,18,06,43,1.50
2014,02,18,06,44,1.50
2014,02,18,06,45,1.50
2014,02,18,06,46,1.50
2014,02,18,06,47,1.50
2014,02,18,06,48,1.50
2014,02,18,06,49,1.50
2014,02,18,06,50,1.40
2014,02,18,06,51,1.40
2014,02,18,06,52,1.40
2014,02,18,06,53,1.40
2014,02,18,06,54,1.40
2014,02,18,06,55,1.40
2014,02,18,06,56,1.40
2014,02,18,06,57,1.40
2014,02,18,06,58,1.40
2014,02,18,06,59,1.40
2014,02,18,07,00,1.40
2014,02,18,09,15,1.00
2014,02,18,09,16,1.00
2014,02,18,09,17,1.00
2014,02,18,09,18,0.90
2014,02,18,09,19,0.90
2014,02,18,09,20,0.90
2014,02,18,09,21,0.90
2014,02,18,09,22,0.90
2014,02,18,09,23,0.90
2014,02,18,09,24,0.90
2014,02,18,09,25,0.90
2014,02,18,09,26,0.90
2014,02,18,09,27,0.90
2014,02,18,09,28,0.90
2014,02,18,09,29,0.90
2014,02,18,09,30,0.90
2014,02,18,09,31,0.90
2014,02,18,09,32,0.90
2014,02,18,09,33,0.90
2014,02,18,09,34,0.90
2014,02,18,09,35,0.90
2014,02,18,09,36,0.90
2014,02,18,09,37,0.90
2014,02,18,09,38,0.90
2014,02,18,09,39,0.90
2014,02,18,09,40,0.90
2014,02,18,09,41,0.90
2014,02,18,09,42,0.90
2014,02,18,09,43,0.80
2014,02,18,09,44,0.80
2014,02,18,09,45,0.80
2014,02,18,09,46,0.80
2014,02,18,09,47,0.80
2014,02,18,09,48,0.80
2014,02,18,09,49,0.80
2014,02,18,09,50,0.80
2014,02,18,09,51,0.80
2014,02,18,09,52,0.80
2014,02,18,09,53,0.80
2014,02,18,09,54,0.70
2014,02,18,09,55,0.70
2014,02,18,09,56,0.70
2014,02,18,09,57,0.70
2014,02,18,09,58,0.70
2014,02,18,09,59,0.70
2014,02,18,10,00,0.70
2014,02,18,10,01,0.70
2014,02,18,10,02,0.70
2014,02,18,10,03,0.70
2014,02,18,10,04,0.70
2014,02,18,10,05,0.70
2014,02,18,10,06,0.70
2014,02,18,10,07,0.70
2014,02,18,10,08,0.70
2014,02,18,10,09,0.70
2014,02,18,10,10,0.60
2014,02,18,10,11,0.60
2014,02,18,10,12,0.70
2014,02,18,10,13,0.70
2014,02,18,10,14,0.70
2014,02,18,10,15,0.70
2014,02,18,10,16,0.70
2014,02,18,10,17,0.70
2014,02,18,10,18,0.70
2014,02,18,10,19,0.70
2014,02,18,10,20,0.70
2014,02,18,10,21,0.70
2014,02,18,10,22,0.70
2014,02,18,10,23,0.70
2014,02,18,10,24,0.70
2014,02,18,10,25,0.80
2014,02,18,10,26,0.80
2014,02,18,10,27,0.80
2014,02,18,10,28,0.90
2014,02,18,10,29,0.90
2014,02,18,10,30,0.90
2014,02,18,10,31,0.90
2014,02,18,10,32,0.90
2014,02,18,10,33,0.80
2014,02,18,10,34,0.80
2014,02,18,10,35,0.80
2014,02,18,10,36,0.80
2014,02,18,10,37,0.70
2014,02,18,10,38,0.70
2014,02,18,10,39,0.70
2014,02,18,10,40,0.70
2014,02,18,10,41,0.70
2014,02,18,10,42,0.70
2014,02,18,10,43,0.70
2014,02,18,10,44,0.70
2014,02,18,10,45,0.70
2014,02,18,10,46,0.70
2014,02,18,10,47,0.70
2014,02,18,10,48,0.70
2014,02,18,10,49,0.70
2014,02,18,10,50,0.70
2014,02,18,10,51,0.70
2014,02,18,10,52,0.70
2014,02,18,10,53,0.70
2014,02,18,10,54,0.70
2014,02,18,10,55,0.70
2014,02,18,10,56,0.70
2014,02,18,10,57,0.60
2014,02,18,10,58,0.60
2014,02,18,10,59,0.60
2014,02,18,11,00,0.60
2014,02,18,11,01,0.60
2014,02,18,11,02,0.50
2014,02,18,11,03,0.50
2014,02,18,11,04,0.50
2014,02,18,11,05,0.50
2014,02,18,11,06,0.50
2014,02,18,11,07,0.50
2014,02,18,11,08,0.40
2014,02,18,11,09,0.40
2014,02,18,11,10,0.40
2014,02,18,11,11,0.40
2014,02,18,11,12,0.40
2014,02,18,11,13,0.30
2014,02,18,11,14,0.30
2014,02,18,11,15,0.30
2014,02,18,11,16,0.30
2014,02,18,11,17,0.30
2014,02,18,11,18,0.40
2014,02,18,11,19,0.40
2014,02,18,11,20,0.40
2014,02,18,11,21,0.40
2014,02,18,11,22,0.40
2014,02,18,11,23,0.40
2014,02,18,11,24,0.50
2014,02,18,11,25,0.50
2014,02,18,11,26,0.50
2014,02,18,11,27,0.60
2014,02,18,11,28,0.60
2014,02,18,11,29,0.60
2014,02,18,11,30,0.60
2014,02,18,11,31,0.60
2014,02,18,11,32,0.60
2014,02,18,11,33,0.60
2014,02,18,11,34,0.60
2014,02,18,11,35,0.60
2014,02,18,11,36,0.70
2014,02,18,11,37,0.70
2014,02,18,11,38,0.70
2014,02,18,11,39,0.70
2014,02,18,11,40,0.70
2014,02,18,11,41,0.70
2014,02,18,11,42,0.70
2014,02,18,11,43,0.70
2014,02,18,11,44,0.70
2014,02,18,11,45,0.70
2014,02,18,11,46,0.80
2014,02,18,11,47,0.80
2014,02,18,11,48,0.80
2014,02,18,11,49,0.80
2014,02,18,11,50,0.90
2014,02,18,11,51,0.90
2014,02,18,11,52,0.90
2014,02,18,11,53,0.90
2014,02,18,11,54,0.90
2014,02,18,11,55,0.90
2014,02,18,11,56,0.90
2014,02,18,11,57,0.90
2014,02,18,11,58,0.90
2014,02,18,11,59,0.90
2014,02,18,12,00,0.90
2014,02,18,12,01,0.90
2014,02,18,12,02,0.90
2014,02,18,12,03,0.90
2014,02,18,12,04,0.90
2014,02,18,12,05,0.80
2014,02,18,12,06,0.80
2014,02,18,12,07,0.80
2014,02,18,12,08,0.80
2014,02,18,12,09,0.80
2014,02,18,12,10,0.80
2014,02,18,12,11,0.80
2014,02,18,12,12,0.80
2014,02,18,12,13,0.80
2014,02,18,12,14,0.80
2014,02,18,12,15,0.80
2014,02,18,12,16,0.80
2014,02,18,12,17,0.80
2014,02,18,12,18,0.80
2014,02,18,12,19,0.80
2014,02,18,12,20,0.80
2014,02,18,12,21,0.80
2014,02,18,12,22,0.80
2014,02,18,12,23,0.80
2014,02,18,12,24,0.90
2014,02,18,12,25,0.90
2014,02,18,12,26,0.90
2014,02,18,12,27,0.90
2014,02,18,12,28,0.90
2014,02,18,12,29,1.00
2014,02,18,12,30,1.00
2014,02,18,12,31,1.00
2014,02,18,12,32,1.10
2014,02,18,12,33,1.10
2014,02,18,12,34,1.10
2014,02,18,12,35,1.10
2014,02,18,12,36,1.10
2014,02,18,12,37,1.10
2014,02,18,12,38,1.10
2014,02,18,12,39,1.10
2014,02,18,12,40,1.10
2014,02,18,12,41,1.10
2014,02,18,12,42,1.10
2014,02,18,12,43,1.10
2014,02,18,12,44,1.10
2014,02,18,12,45,1.10
2014,02,18,12,46,1.10
2014,02,18,12,47,1.00
2014,02,18,12,48,1.10
2014,02,18,12,49,1.10
2014,02,18,12,50,1.10
2014,02,18,12,51,1.10
2014,02,18,12,52,1.10
2014,02,18,12,53,1.10
2014,02,18,12,54,1.10
2014,02,18,12,55,1.20
2014,02,18,12,56,1.20
2014,02,18,12,57,1.20
2014,02,18,12,58,1.20
2014,02,18,12,59,1.20
2014,02,18,13,00,1.20
2014,02,18,13,01,1.20
2014,02,18,13,02,1.20
2014,02,18,13,03,1.30
2014,02,18,13,04,1.30
2014,02,18,13,05,1.30
2014,02,18,13,06,1.30
2014,02,18,13,07,1.30
2014,02,18,13,08,1.30
2014,02,18,13,09,1.30
2014,02,18,13,10,1.30
2014,02,18,13,11,1.30
2014,02,18,13,12,1.30
2014,02,18,13,13,1.40
2014,02,18,13,14,1.40
2014,02,18,13,15,1.50
2014,02,18,13,16,1.50
2014,02,18,13,17,1.60
2014,02,18,13,18,1.60
2014,02,18,13,19,1.60
2014,02,18,13,20,1.70
2014,02,18,13,21,1.70
2014,02,18,13,22,1.70
2014,02,18,13,23,1.80
2014,02,18,13,24,1.80
2014,02,18,13,25,1.80
2014,02,18,13,26,1.90
2014,02,18,13,27,1.90
2014,02,18,13,28,1.90
2014,02,18,13,29,2.00
2014,02,18,13,30,2.00
2014,02,18,13,31,2.00
2014,02,18,13,32,2.10
2014,02,18,13,33,2.10
2014,02,18,13,34,2.10
2014,02,18,13,35,2.10
2014,02,18,13,36,2.10
2014,02,18,13,37,2.10
2014,02,18,13,38,2.10
2014,02,18,13,39,2.10
2014,02,18,13,40,2.10
2014,02,18,13,41,2.10
2014,02,18,13,42,2.10
2014,02,18,13,43,2.10
2014,02,18,13,44,2.10
2014,02,18,13,45,2.10
2014,02,18,13,46,2.10
2014,02,18,13,47,2.10
2014,02,18,13,48,2.10
2014,02,18,13,49,2.10
2014,02,18,13,50,2.10
2014,02,18,13,51,2.10
2014,02,18,13,52,2.10
2014,02,18,13,53,2.10
2014,02,18,13,54,2.00
2014,02,18,13,55,2.00
2014,02,18,13,56,1.90
2014,02,18,13,57,1.90
2014,02,18,13,58,1.90
2014,02,18,13,59,1.90
2014,02,18,14,00,1.90
2014,02,18,14,01,1.90
2014,02,18,14,02,1.90
2014,02,18,14,03,1.90
2014,02,18,14,04,1.90
2014,02,18,14,05,1.90
2014,02,18,14,06,1.90
2014,02,18,14,07,1.90
2014,02,18,14,08,1.90
2014,02,18,14,09,1.90
2014,02,18,14,10,1.90
2014,02,18,14,11,1.90
2014,02,18,14,12,1.90
2014,02,18,14,13,1.90
2014,02,18,14,14,1.90
2014,02,18,14,15,1.90
2014,02,18,14,16,1.90
2014,02,18,14,17,1.90
2014,02,18,14,18,1.90
2014,02,18,14,19,1.90
2014,02,18,14,20,1.90
2014,02,18,14,21,1.90
2014,02,18,14,22,1.90
2014,02,18,14,23,1.90
2014,02,18,14,24,1.90
2014,02,18,14,25,1.90
2014,02,18,14,26,1.90
2014,02,18,14,27,1.90
2014,02,18,14,28,1.90
2014,02,18,14,29,1.90
2014,02,18,14,30,1.90
2014,02,18,14,31,1.90
2014,02,18,14,32,1.90
2014,02,18,14,33,1.90
2014,02,18,14,34,1.90
2014,02,18,14,35,1.90
2014,02,18,14,36,1.90
2014,02,18,14,37,1.90
2014,02,18,14,38,1.90
2014,02,18,14,39,1.80
2014,02,18,14,40,1.80
2014,02,18,14,41,1.80
2014,02,18,14,42,1.90
2014,02,18,14,43,1.90
2014,02,18,14,44,1.90
2014,02,18,14,45,1.90
2014,02,18,14,46,1.90
2014,02,18,14,47,2.00
2014,02,18,14,48,2.00
2014,02,18,14,49,2.00
2014,02,18,14,50,2.10
2014,02,18,14,51,2.10
2014,02,18,14,52,2.10
2014,02,18,14,53,2.20
2014,02,18,14,54,2.20
2014,02,18,14,55,2.20
2014,02,18,14,56,2.30
2014,02,18,14,57,2.30
2014,02,18,14,58,2.30
2014,02,18,14,59,2.30
2014,02,18,15,00,2.40
2014,02,18,15,01,2.40
2014,02,18,15,02,2.40
2014,02,18,15,03,2.40
2014,02,18,15,04,2.40
2014,02,18,15,05,2.40
2014,02,18,15,06,2.40
2014,02,18,15,07,2.50
2014,02,18,15,08,2.50
2014,02,18,15,09,2.50
2014,02,18,15,10,2.60
2014,02,18,15,11,2.60
2014,02,18,15,12,2.70
2014,02,18,15,13,2.80
2014,02,18,15,14,2.80
2014,02,18,15,15,2.90
2014,02,18,15,16,3.00
2014,02,18,15,17,3.00
2014,02,18,15,18,3.00
2014,02,18,15,19,3.00
2014,02,18,15,20,3.10
2014,02,18,15,21,3.10
2014,02,18,15,22,3.20
2014,02,18,15,23,3.20
2014,02,18,15,24,3.20
2014,02,18,15,25,3.30
2014,02,18,15,26,3.30
2014,02,18,15,27,3.30
2014,02,18,15,28,3.30
2014,02,18,15,29,3.40
2014,02,18,15,30,3.40
2014,02,18,15,31,3.40
2014,02,18,15,32,3.40
2014,02,18,15,33,3.40
2014,02,18,15,34,3.40
2014,02,18,15,35,3.40
2014,02,18,15,36,3.40
2014,02,18,15,37,3.40
2014,02,18,15,38,3.30
2014,02,18,15,39,3.30
2014,02,18,15,40,3.30
2014,02,18,15,41,3.30
2014,02,18,15,42,3.30
2014,02,18,15,43,3.30
2014,02,18,15,44,3.20
2014,02,18,15,45,3.20
2014,02,18,15,46,3.20
2014,02,18,15,47,3.20
2014,02,18,15,48,3.20
2014,02,18,15,49,3.20
2014,02,18,15,50,3.20
2014,02,18,15,51,3.20
2014,02,18,15,52,3.10
2014,02,18,15,53,3.10
2014,02,18,15,54,3.10
2014,02,18,15,55,3.10
2014,02,18,15,56,3.10
2014,02,18,15,57,3.10
2014,02,18,15,58,3.10
2014,02,18,15,59,3.10
2014,02,18,16,00,3.10
2014,02,18,16,01,3.10
2014,02,18,16,02,3.10
2014,02,18,16,03,3.10
2014,02,18,16,04,3.10
2014,02,18,16,05,3.10
2014,02,18,16,06,3.10
2014,02,18,16,07,3.10
2014,02,18,16,08,3.10
2014,02,18,16,09,3.10
2014,02,18,16,10,3.10
2014,02,18,16,11,3.10
2014,02,18,16,12,3.10
2014,02,18,16,13,3.10
2014,02,18,16,14,3.10
2014,02,18,16,15,3.10
2014,02,18,16,16,3.20
2014,02,18,16,17,3.20
2014,02,18,16,18,3.20
2014,02,18,16,19,3.10
2014,02,18,16,20,3.10
2014,02,18,16,21,3.10
2014,02,18,16,22,3.10
2014,02,18,16,23,3.10
2014,02,18,16,24,3.10
2014,02,18,16,25,3.10
2014,02,18,16,26,3.10
2014,02,18,16,27,3.10
2014,02,18,16,28,3.00
2014,02,18,16,29,3.00
2014,02,18,16,30,3.00
2014,02,18,16,31,3.00
2014,02,18,16,32,3.00
2014,02,18,16,33,2.90
2014,02,18,16,34,2.90
2014,02,18,16,35,2.90
2014,02,18,16,36,2.90
2014,02,18,16,37,2.90
2014,02,18,16,38,2.90
2014,02,18,16,39,2.90
2014,02,18,16,40,2.90
2014,02,18,16,41,2.90
2014,02,18,16,42,2.90
2014,02,18,16,43,2.90
2014,02,18,16,44,2.90
2014,02,18,16,45,2.90
2014,02,18,16,46,2.90
2014,02,18,16,47,2.90
2014,02,18,16,48,2.90
2014,02,18,16,49,2.90
2014,02,18,16,50,2.90
2014,02,18,16,51,2.90
2014,02,18,16,52,2.90
2014,02,18,16,53,2.90
2014,02,18,16,54,3.00
2014,02,18,16,55,3.00
2014,02,18,16,56,3.00
2014,02,18,16,57,3.00
2014,02,18,16,58,3.00
2014,02,18,16,59,3.00
2014,02,18,17,00,3.00
2014,02,18,17,01,3.00
2014,02,18,17,02,3.00
2014,02,18,17,03,3.00
2014,02,18,17,04,3.00
2014,02,18,17,05,3.00
2014,02,18,17,06,3.00
2014,02,18,17,07,3.00
2014,02,18,17,08,3.00
2014,02,18,17,09,3.00
2014,02,18,17,10,3.00
2014,02,18,17,11,3.00
2014,02,18,17,12,3.00
2014,02,18,17,13,3.00
2014,02,18,17,14,3.00
2014,02,18,17,15,3.00
2014,02,18,17,16,3.00
2014,02,18,17,17,3.00
2014,02,18,17,18,3.00
2014,02,18,17,19,3.00
2014,02,18,17,20,2.90
2014,02,18,17,21,2.90
2014,02,18,17,22,2.90
2014,02,18,17,23,2.90
2014,02,18,17,24,2.90
2014,02,18,17,25,2.90
2014,02,18,17,26,2.90
2014,02,18,17,27,2.90
2014,02,18,17,28,2.90
2014,02,18,17,29,2.90
2014,02,18,17,30,2.90
2014,02,18,17,31,2.90
2014,02,18,17,32,2.90
2014,02,18,17,33,2.90
2014,02,18,17,34,2.90
2014,02,18,17,35,2.90
2014,02,18,17,36,2.90
2014,02,18,17,37,2.80
2014,02,18,17,38,2.80
2014,02,18,17,39,2.80
2014,02,18,17,40,2.80
2014,02,18,17,41,2.80
2014,02,18,17,42,2.80
2014,02,18,17,43,2.80
2014,02,18,17,44,2.90
2014,02,18,17,45,2.90
2014,02,18,17,46,2.90
2014,02,18,17,47,2.90
2014,02,18,17,48,2.90
2014,02,18,17,49,2.90
2014,02,18,17,50,2.90
2014,02,18,17,51,2.90
2014,02,18,17,52,2.90
2014,02,18,17,53,2.90
2014,02,18,17,54,2.90
2014,02,18,17,55,2.80
2014,02,18,17,56,2.80
2014,02,18,17,57,2.80
2014,02,18,17,58,2.80
2014,02,18,17,59,2.80
2014,02,18,18,00,2.80
2014,02,18,18,01,2.80
2014,02,18,18,02,2.80
2014,02,18,18,03,2.80
2014,02,18,18,04,2.80
2014,02,18,18,05,2.80
2014,02,18,18,06,2.80
2014,02,18,18,07,2.80
2014,02,18,18,08,2.80
2014,02,18,18,09,2.80
2014,02,18,18,10,2.70
2014,02,18,18,11,2.70
2014,02,18,18,12,2.70
2014,02,18,18,13,2.70
2014,02,18,18,14,2.70
2014,02,18,18,15,2.70
2014,02,18,18,16,2.70
2014,02,18,18,17,2.60
2014,02,18,18,18,2.60
2014,02,18,18,19,2.60
2014,02,18,18,20,2.60
2014,02,18,18,21,2.60
2014,02,18,18,22,2.60
2014,02,18,18,23,2.50
2014,02,18,18,24,2.50
2014,02,18,18,25,2.40
2014,02,18,18,26,2.40
2014,02,18,18,27,2.40
2014,02,18,18,28,2.40
2014,02,18,18,29,2.40
2014,02,18,18,30,2.30
2014,02,18,18,31,2.30
2014,02,18,18,32,2.30
2014,02,18,18,33,2.30
2014,02,18,18,34,2.30
2014,02,18,18,35,2.30
2014,02,18,18,36,2.30
2014,02,18,18,37,2.30
2014,02,18,18,38,2.30
2014,02,18,18,39,2.20
2014,02,18,18,40,2.20
2014,02,18,18,41,2.20
2014,02,18,18,42,2.20
2014,02,18,18,43,2.20
2014,02,18,18,44,2.20
2014,02,18,18,45,2.20
2014,02,18,18,46,2.20
2014,02,18,18,47,2.20
2014,02,18,18,48,2.20
2014,02,18,18,49,2.20
2014,02,18,18,50,2.20
2014,02,18,18,51,2.20
2014,02,18,18,52,2.20
2014,02,18,18,53,2.20
2014,02,18,18,54,2.20
2014,02,18,18,55,2.20
2014,02,18,18,56,2.20
2014,02,18,18,57,2.20
2014,02,18,18,58,2.20
2014,02,18,18,59,2.20
2014,02,18,19,00,2.20
2014,02,18,19,01,2.20
2014,02,18,19,02,2.20
2014,02,18,19,03,2.20
2014,02,18,19,04,2.20
2014,02,18,19,05,2.20
2014,02,18,19,06,2.20
2014,02,18,19,07,2.20
2014,02,18,19,08,2.20
2014,02,18,19,09,2.20
2014,02,18,19,10,2.30
2014,02,18,19,11,2.30
2014,02,18,19,12,2.30
2014,02,18,19,13,2.40
2014,02,18,19,14,2.40
2014,02,18,19,15,2.40
2014,02,18,19,16,2.40
2014,02,18,19,17,2.50
2014,02,18,19,18,2.50
2014,02,18,19,19,2.40
2014,02,18,19,20,2.40
2014,02,18,19,21,2.40
2014,02,18,19,22,2.40
2014,02,18,19,23,2.30
2014,02,18,19,24,2.30
2014,02,18,19,25,2.30
2014,02,18,19,26,2.30
2014,02,18,19,27,2.20
2014,02,18,19,28,2.20
2014,02,18,19,29,2.20
2014,02,18,19,30,2.10
2014,02,18,19,31,2.10
2014,02,18,19,32,2.10
2014,02,18,19,33,2.10
2014,02,18,19,34,2.10
2014,02,18,19,35,2.00
2014,02,18,19,36,2.00
2014,02,18,19,37,1.90
2014,02,18,19,38,1.90
2014,02,18,19,39,1.90
2014,02,18,19,40,1.90
2014,02,18,19,41,1.80
2014,02,18,19,42,1.80
2014,02,18,19,43,1.70
2014,02,18,19,44,1.70
2014,02,18,19,45,1.60
2014,02,18,19,46,1.60
2014,02,18,19,47,1.50
2014,02,18,19,48,1.40
2014,02,18,19,49,1.30
2014,02,18,19,50,1.30
2014,02,18,19,51,1.30
2014,02,18,19,52,1.30
2014,02,18,19,53,1.30
2014,02,18,19,54,1.30
2014,02,18,19,55,1.30
2014,02,18,19,56,1.30
2014,02,18,19,57,1.30
2014,02,18,19,58,1.30
2014,02,18,19,59,1.30
2014,02,18,20,00,1.30
2014,02,18,20,01,1.30
2014,02,18,20,02,1.30
2014,02,18,20,03,1.20
2014,02,18,20,04,1.20
2014,02,18,20,05,1.20
2014,02,18,20,06,1.20
2014,02,18,20,07,1.20
2014,02,18,20,08,1.20
2014,02,18,20,09,1.20
2014,02,18,20,10,1.20
2014,02,18,20,11,1.20
2014,02,18,20,12,1.30
2014,02,18,20,13,1.30
2014,02,18,20,14,1.30
2014,02,18,20,15,1.30
2014,02,18,20,16,1.30
2014,02,18,20,17,1.30